Hourly Weather Rusyn

Today, 16 April, Friday

Time Temperature Precipitation Wind Pressure Humidity
00:00 -1°C° 0.5 mm 5 mps 739 mmHg 97%
01:00 -1°C° 0.5 mm 5 mps 739 mmHg 97%
02:00 -1°C° 0.5 mm 5 mps 739 mmHg 97%
03:00 -1°C° 0.7 mm 5 mps 738 mmHg 97%
04:00 -1°C° 0.7 mm 5 mps 738 mmHg 97%
05:00 -2°C° 0.7 mm 6 mps 738 mmHg 97%
06:00 -2°C° 1.1 mm 6 mps 738 mmHg 98%
07:00 -2°C° 1.1 mm 6 mps 738 mmHg 98%
08:00 -2°C° 1.1 mm 6 mps 738 mmHg 98%
09:00 -2°C° 1.5 mm 6 mps 738 mmHg 98%
10:00 -2°C° 1.5 mm 6 mps 738 mmHg 99%
11:00 -2°C° 1.5 mm 6 mps 738 mmHg 99%
12:00 -2°C° 1 mm 6 mps 738 mmHg 99%
13:00 -2°C° 1 mm 6 mps 738 mmHg 99%
14:00 -2°C° 1 mm 6 mps 738 mmHg 99%
15:00 -2°C° 1 mm 7 mps 738 mmHg 99%
16:00 -2°C° 1 mm 7 mps 738 mmHg 99%
17:00 -2°C° 1 mm 7 mps 738 mmHg 99%
18:00 -2°C° 1 mm 7 mps 738 mmHg 99%
19:00 -2°C° 1 mm 7 mps 738 mmHg 99%
20:00 -2°C° 1 mm 7 mps 739 mmHg 99%
21:00 -2°C° 0.5 mm 6 mps 739 mmHg 99%
22:00 -2°C° 0.5 mm 6 mps 739 mmHg 99%
23:00 -2°C° 0.5 mm 6 mps 739 mmHg 99%

Tomorrow, 17 April, Saturday

Time Temperature Precipitation Wind Pressure Humidity
00:00 -1°C° 0.4 mm 5 mps 739 mmHg 99%
01:00 -1°C° 0.4 mm 5 mps 740 mmHg 99%
02:00 -1°C° 0.4 mm 5 mps 740 mmHg 99%
03:00 -1°C° 0.1 mm 5 mps 740 mmHg 99%
04:00 -1°C° 0.1 mm 4 mps 740 mmHg 99%
05:00 -1°C° 0.1 mm 4 mps 740 mmHg 99%
06:00 -1°C° 0 mm 4 mps 741 mmHg 99%
07:00 -1°C° 0 mm 4 mps 741 mmHg 99%
08:00 0°C° 0 mm 3 mps 741 mmHg 99%
09:00 +1°C° 0 mm 3 mps 742 mmHg 98%
10:00 +1°C° 0 mm 3 mps 742 mmHg 98%
11:00 +1°C° 0 mm 3 mps 742 mmHg 98%
12:00 +2°C° 0 mm 3 mps 742 mmHg 97%
13:00 +3°C° 0 mm 2 mps 742 mmHg 97%
14:00 +3°C° 0 mm 2 mps 743 mmHg 97%
15:00 +5°C° 0 mm 1 mps 742 mmHg 95%
16:00 +5°C° 0 mm 1 mps 742 mmHg 94%
17:00 +6°C° 0 mm 1 mps 742 mmHg 93%
18:00 +5°C° 0 mm 1 mps 743 mmHg 94%
19:00 +5°C° 0 mm 1 mps 743 mmHg 95%
20:00 +4°C° 0 mm 1 mps 743 mmHg 96%
21:00 +4°C° 0 mm 1 mps 743 mmHg 96%
22:00 +4°C° 0 mm 1 mps 743 mmHg 97%
23:00 +4°C° 0 mm 1 mps 743 mmHg 97%

Day after tomorrow, 18 April, Sunday

Time Temperature Precipitation Wind Pressure Humidity
00:00 +4°C° 0 mm 1 mps 743 mmHg 97%
01:00 +3°C° 0 mm 0 mps 743 mmHg 97%
02:00 +3°C° 0 mm 0 mps 742 mmHg 97%
03:00 +3°C° 0 mm 0 mps 742 mmHg 96%
04:00 +3°C° 0 mm 0 mps 742 mmHg 96%
05:00 +3°C° 0 mm 0 mps 742 mmHg 96%
06:00 +3°C° 0 mm 0 mps 742 mmHg 95%
07:00 +4°C° 0 mm 0 mps 742 mmHg 94%
08:00 +4°C° 0 mm 0 mps 742 mmHg 93%
09:00 +6°C° 0 mm 1 mps 742 mmHg 88%
10:00 +7°C° 0 mm 1 mps 742 mmHg 83%
11:00 +8°C° 0 mm 2 mps 742 mmHg 78%
12:00 +8°C° 0 mm 2 mps 742 mmHg 74%
13:00 +9°C° 0 mm 2 mps 742 mmHg 69%
14:00 +10°C° 0 mm 2 mps 742 mmHg 64%
15:00 +10°C° 0 mm 2 mps 742 mmHg 65%
16:00 +10°C° 0 mm 2 mps 741 mmHg 66%
17:00 +10°C° 0 mm 2 mps 741 mmHg 67%
18:00 +9°C° 0 mm 2 mps 741 mmHg 71%
19:00 +8°C° 0 mm 2 mps 741 mmHg 75%
20:00 +8°C° 0 mm 1 mps 741 mmHg 79%
21:00 +7°C° 0 mm 2 mps 741 mmHg 79%
22:00 +7°C° 0 mm 2 mps 741 mmHg 80%
23:00 +7°C° 0 mm 2 mps 741 mmHg 80%

19 April, Monday

Time Temperature Precipitation Wind Pressure Humidity
00:00 +7°C° 0 mm 2 mps 741 mmHg 82%
01:00 +6°C° 0 mm 2 mps 741 mmHg 84%
02:00 +6°C° 0 mm 2 mps 741 mmHg 86%
03:00 +6°C° 0 mm 2 mps 740 mmHg 87%
04:00 +6°C° 0 mm 2 mps 740 mmHg 88%
05:00 +6°C° 0 mm 2 mps 740 mmHg 90%
06:00 +7°C° 0 mm 3 mps 740 mmHg 87%
07:00 +7°C° 0 mm 3 mps 740 mmHg 85%
08:00 +7°C° 0 mm 4 mps 740 mmHg 82%
09:00 +8°C° 0.1 mm 4 mps 740 mmHg 77%
10:00 +10°C° 0.1 mm 4 mps 740 mmHg 72%
11:00 +11°C° 0.1 mm 4 mps 740 mmHg 67%
12:00 +10°C° 0.1 mm 5 mps 740 mmHg 67%
13:00 +10°C° 0.1 mm 5 mps 739 mmHg 66%
14:00 +10°C° 0.1 mm 6 mps 739 mmHg 66%
15:00 +10°C° 0.1 mm 6 mps 739 mmHg 68%
16:00 +10°C° 0.1 mm 6 mps 739 mmHg 71%
17:00 +9°C° 0.1 mm 6 mps 739 mmHg 73%
18:00 +8°C° 0 mm 5 mps 739 mmHg 76%
19:00 +7°C° 0 mm 5 mps 738 mmHg 78%
20:00 +6°C° 0 mm 5 mps 738 mmHg 80%
21:00 +6°C° 0 mm 5 mps 738 mmHg 79%
22:00 +6°C° 0 mm 5 mps 738 mmHg 78%
23:00 +6°C° 0 mm 5 mps 738 mmHg 77%

20 April, Tuesday

Time Temperature Precipitation Wind Pressure Humidity
00:00 +6°C° 0 mm 5 mps 738 mmHg 77%
01:00 +6°C° 0 mm 5 mps 737 mmHg 78%
02:00 +5°C° 0 mm 5 mps 737 mmHg 78%
03:00 +5°C° 0 mm 5 mps 737 mmHg 79%
04:00 +5°C° 0 mm 5 mps 737 mmHg 80%
05:00 +5°C° 0 mm 5 mps 736 mmHg 81%
06:00 +5°C° 0.1 mm 5 mps 736 mmHg 83%
07:00 +5°C° 0.1 mm 5 mps 736 mmHg 85%
08:00 +5°C° 0.1 mm 5 mps 736 mmHg 87%
09:00 +4°C° 0.1 mm 6 mps 736 mmHg 86%
10:00 +5°C° 0.1 mm 6 mps 736 mmHg 84%
11:00 +5°C° 0.1 mm 6 mps 736 mmHg 82%
12:00 +5°C° 0.1 mm 6 mps 735 mmHg 81%
13:00 +7°C° 0.1 mm 6 mps 735 mmHg 79%
14:00 +7°C° 0.1 mm 6 mps 735 mmHg 78%
15:00 +7°C° 0.1 mm 6 mps 735 mmHg 76%
16:00 +7°C° 0.1 mm 6 mps 735 mmHg 74%
17:00 +8°C° 0.1 mm 5 mps 735 mmHg 72%
18:00 +7°C° 0 mm 5 mps 735 mmHg 74%
19:00 +6°C° 0 mm 5 mps 735 mmHg 76%
20:00 +5°C° 0 mm 4 mps 735 mmHg 78%
21:00 +5°C° 0 mm 4 mps 735 mmHg 79%
22:00 +5°C° 0 mm 4 mps 735 mmHg 80%
23:00 +5°C° 0 mm 4 mps 735 mmHg 81%

21 April, Wednesday

Time Temperature Precipitation Wind Pressure Humidity
00:00 +4°C° 0 mm 4 mps 735 mmHg 82%
01:00 +3°C° 0 mm 5 mps 735 mmHg 83%
02:00 +3°C° 0 mm 5 mps 735 mmHg 84%
03:00 +3°C° 0 mm 5 mps 735 mmHg 84%
04:00 +3°C° 0 mm 5 mps 735 mmHg 84%
05:00 +4°C° 0 mm 4 mps 735 mmHg 84%
06:00 +5°C° 0.1 mm 5 mps 735 mmHg 83%
07:00 +5°C° 0.1 mm 5 mps 735 mmHg 81%
08:00 +5°C° 0.1 mm 6 mps 736 mmHg 79%
09:00 +7°C° 0.2 mm 6 mps 736 mmHg 72%
10:00 +8°C° 0.2 mm 6 mps 736 mmHg 64%
11:00 +9°C° 0.2 mm 6 mps 736 mmHg 56%
12:00 +9°C° 0 mm 6 mps 736 mmHg 55%
13:00 +9°C° 0 mm 6 mps 737 mmHg 54%
14:00 +10°C° 0 mm 6 mps 737 mmHg 53%
15:00 +10°C° 0 mm 5 mps 737 mmHg 55%
16:00 +10°C° 0 mm 5 mps 737 mmHg 57%
17:00 +11°C° 0 mm 4 mps 737 mmHg 59%
18:00 +8°C° 0 mm 4 mps 738 mmHg 66%
19:00 +8°C° 0 mm 3 mps 738 mmHg 73%
20:00 +7°C° 0 mm 3 mps 738 mmHg 80%
21:00 +5°C° 0 mm 3 mps 738 mmHg 83%
22:00 +5°C° 0 mm 3 mps 738 mmHg 86%
23:00 +4°C° 0 mm 3 mps 739 mmHg 88%
Show more